| time (UTC) | temp C | wind direction | speed KPH | gust KPH | rain 1hr cm | rain 24hr cm | rain mn cm | humidity % | barometer mb |
| 20260901081013 | 23 | 312 | 1.6 | 4.8 | 0.00 | 0.00 | 0.00 | 87 | 1015.3 |
| 20260901080518 | 23 | 290 | 3.2 | 4.8 | 0.00 | 0.00 | 0.00 | 87 | 1015.2 |
| 20260901080112 | 23 | 288 | 3.2 | 4.8 | 0.00 | 0.00 | 0.00 | 87 | 1015.2 |
| 20260901080034 | 23 | 266 | 1.6 | 4.8 | 0.00 | 0.00 | 0.00 | 87 | 1015.2 |
| 20260901075519 | 23 | 281 | 3.2 | 4.8 | 0.00 | 0.00 | 0.00 | 87 | 1015.3 |
| 20260901075017 | 23 | 248 | 1.6 | 4.8 | 0.00 | 0.00 | 0.00 | 87 | 1015.2 |
| 20260901074602 | 23 | 278 | 3.2 | 4.8 | 0.00 | 0.00 | 0.00 | 88 | 1015.3 |
| 20260901074533 | 23 | 281 | 3.2 | 4.8 | 0.00 | 0.00 | 0.00 | 88 | 1015.2 |
| 20260901074008 | 23 | 257 | 1.6 | 4.8 | 0.00 | 0.00 | 0.00 | 88 | 1015.3 |
| 20260901073510 | 23 | 248 | 1.6 | 8.0 | 0.00 | 0.00 | 0.00 | 88 | 1015.2 |
| 20260901073105 | 23 | 289 | 3.2 | 8.0 | 0.00 | 0.00 | 0.00 | 88 | 1015.3 |
| 20260901073036 | 23 | 283 | 3.2 | 8.0 | 0.00 | 0.00 | 0.00 | 88 | 1015.2 |
| 20260901072516 | 23 | 256 | 1.6 | 4.8 | 0.00 | 0.00 | 0.00 | 88 | 1015.2 |
| 20260901072015 | 23 | 265 | 1.6 | 4.8 | 0.00 | 0.00 | 0.00 | 88 | 1015.2 |
| 20260901071605 | 23 | 271 | 1.6 | 4.8 | 0.00 | 0.00 | 0.00 | 88 | 1015.3 |
| 20260901071530 | 23 | 283 | 1.6 | 4.8 | 0.00 | 0.00 | 0.00 | 88 | 1015.2 |
| 20260901071005 | 23 | 284 | 1.6 | 8.0 | 0.00 | 0.00 | 0.00 | 88 | 1015.2 |
| 20260901070504 | 23 | 266 | 1.6 | 8.0 | 0.00 | 0.00 | 0.00 | 87 | 1015.2 |
| 20260901070104 | 23 | 242 | 1.6 | 8.0 | 0.00 | 0.00 | 0.00 | 87 | 1015.2 |
| 20260901070019 | 23 | 271 | 1.6 | 8.0 | 0.00 | 0.00 | 0.00 | 87 | 1015.2 |
| 20260901065506 | 23 | 289 | 1.6 | 4.8 | 0.00 | 0.00 | 0.00 | 87 | 1015.2 |
| 20260901065006 | 23 | 281 | 1.6 | 4.8 | 0.00 | 0.00 | 0.00 | 86 | 1015.2 |
| 20260901064605 | 23 | 309 | 1.6 | 4.8 | 0.00 | 0.00 | 0.00 | 86 | 1015.4 |
| 20260901064527 | 23 | 285 | 1.6 | 4.8 | 0.00 | 0.00 | 0.00 | 86 | 1015.3 |
| 20260901064010 | 23 | 276 | 1.6 | 6.4 | 0.00 | 0.00 | 0.00 | 86 | 1015.3 |
| 20260901063509 | 23 | 248 | 1.6 | 6.4 | 0.00 | 0.00 | 0.00 | 86 | 1015.3 |
| 20260901063115 | 23 | 277 | 1.6 | 4.8 | 0.00 | 0.00 | 0.00 | 86 | 1015.3 |
| 20260901063023 | 23 | 288 | 1.6 | 4.8 | 0.00 | 0.00 | 0.00 | 86 | 1015.2 |
| 20260901062012 | 23 | 302 | 3.2 | 4.8 | 0.00 | 0.00 | 0.00 | 85 | 1015.2 |
| 20260901061617 | 23 | 281 | 1.6 | 4.8 | 0.00 | 0.00 | 0.00 | 85 | 1015.3 |
| 20260901061529 | 23 | 285 | 1.6 | 4.8 | 0.00 | 0.00 | 0.00 | 85 | 1015.1 |
| 20260901061003 | 23 | 272 | 3.2 | 6.4 | 0.00 | 0.00 | 0.00 | 85 | 1015.1 |
| 20260901060503 | 24 | 270 | 1.6 | 6.4 | 0.00 | 0.00 | 0.00 | 84 | 1015.1 |
| 20260901060108 | 24 | 276 | 3.2 | 8.0 | 0.00 | 0.00 | 0.00 | 84 | 1015.2 |
| 20260901060011 | 24 | 289 | 3.2 | 8.0 | 0.00 | 0.00 | 0.00 | 84 | 1015.2 |
| 20260901055504 | 24 | 254 | 3.2 | 8.0 | 0.00 | 0.00 | 0.00 | 84 | 1015.2 |
| 20260901055003 | 24 | 262 | 3.2 | 9.7 | 0.00 | 0.00 | 0.00 | 84 | 1015.2 |
| 20260901054601 | 24 | 307 | 3.2 | 9.7 | 0.00 | 0.00 | 0.00 | 84 | 1015.2 |
| 20260901054511 | 24 | 280 | 3.2 | 9.7 | 0.00 | 0.00 | 0.00 | 84 | 1015.1 |
| 20260901054006 | 24 | 257 | 1.6 | 4.8 | 0.00 | 0.00 | 0.00 | 84 | 1015.1 |
| 20260901053508 | 24 | 265 | 1.6 | 6.4 | 0.00 | 0.00 | 0.00 | 84 | 1015.1 |
| 20260901053104 | 24 | 283 | 1.6 | 6.4 | 0.00 | 0.00 | 0.00 | 84 | 1015.2 |
| 20260901053019 | 24 | 316 | 1.6 | 6.4 | 0.00 | 0.00 | 0.00 | 84 | 1015.1 |
| 20260901052509 | 24 | 302 | 3.2 | 6.4 | 0.00 | 0.00 | 0.00 | 84 | 1015.0 |
| 20260901052009 | 24 | 263 | 3.2 | 6.4 | 0.00 | 0.00 | 0.00 | 84 | 1015.1 |
| 20260901051619 | 24 | 311 | 1.6 | 6.4 | 0.00 | 0.00 | 0.00 | 84 | 1015.2 |
| 20260901051526 | 24 | 281 | 1.6 | 6.4 | 0.00 | 0.00 | 0.00 | 83 | 1015.1 |
| 20260901051012 | 24 | 265 | 1.6 | 4.8 | 0.00 | 0.00 | 0.00 | 83 | 1015.1 |
| 20260901050513 | 24 | 272 | 1.6 | 6.4 | 0.00 | 0.00 | 0.00 | 83 | 1015.2 |
| 20260901050109 | 24 | 272 | 1.6 | 6.4 | 0.00 | 0.00 | 0.00 | 83 | 1015.3 |
| 20260901050029 | 24 | 288 | 1.6 | 6.4 | 0.00 | 0.00 | 0.00 | 83 | 1015.2 |
| 20260901045502 | 24 | 272 | 1.6 | 8.0 | 0.00 | 0.00 | 0.00 | 83 | 1015.2 |
| 20260901045003 | 25 | 277 | 1.6 | 8.0 | 0.00 | 0.00 | 0.00 | 83 | 1015.2 |
| 20260901044603 | 25 | 233 | 1.6 | 6.4 | 0.00 | 0.00 | 0.00 | 82 | 1015.3 |
| 20260901044510 | 25 | 271 | 1.6 | 6.4 | 0.00 | 0.00 | 0.00 | 82 | 1015.2 |
| 20260901044004 | 25 | 279 | 1.6 | 6.4 | 0.00 | 0.00 | 0.00 | 82 | 1015.2 |
| 20260901043506 | 25 | 265 | 1.6 | 4.8 | 0.00 | 0.00 | 0.00 | 82 | 1015.2 |
| 20260901043103 | 25 | 285 | 1.6 | 4.8 | 0.00 | 0.00 | 0.00 | 82 | 1015.4 |
| 20260901043015 | 25 | 260 | 1.6 | 4.8 | 0.00 | 0.00 | 0.00 | 82 | 1015.2 |
| 20260901042509 | 25 | 267 | 1.6 | 6.4 | 0.00 | 0.00 | 0.00 | 82 | 1015.3 |
| 20260901042007 | 25 | 248 | 1.6 | 6.4 | 0.00 | 0.00 | 0.00 | 81 | 1015.2 |
| 20260901041605 | 25 | 291 | 1.6 | 6.4 | 0.00 | 0.00 | 0.00 | 81 | 1015.4 |
| 20260901041525 | 25 | 274 | 3.2 | 6.4 | 0.00 | 0.00 | 0.00 | 81 | 1015.3 |
| 20260901041011 | 25 | 316 | 3.2 | 4.8 | 0.00 | 0.00 | 0.00 | 81 | 1015.3 |
| 20260901040511 | 25 | 266 | 1.6 | 4.8 | 0.00 | 0.00 | 0.00 | 81 | 1015.3 |
| 20260901040105 | 25 | 202 | 1.6 | 4.8 | 0.00 | 0.00 | 0.00 | 81 | 1015.4 |
| 20260901040033 | 25 | 210 | 1.6 | 4.8 | 0.00 | 0.00 | 0.00 | 81 | 1015.2 |
| 20260901035512 | 25 | 294 | 1.6 | 4.8 | 0.00 | 0.00 | 0.00 | 81 | 1015.3 |
| 20260901035011 | 25 | 255 | 1.6 | 4.8 | 0.00 | 0.00 | 0.00 | 81 | 1015.3 |
| 20260901034609 | 25 | 274 | 1.6 | 4.8 | 0.00 | 0.00 | 0.00 | 82 | 1015.5 |
| 20260901034535 | 25 | 294 | 1.6 | 4.8 | 0.00 | 0.00 | 0.00 | 82 | 1015.3 |
| 20260901034005 | 25 | 289 | 1.6 | 4.8 | 0.00 | 0.00 | 0.00 | 82 | 1015.4 |
| 20260901033503 | 25 | 335 | 1.6 | 4.8 | 0.00 | 0.00 | 0.00 | 83 | 1015.4 |
| 20260901033114 | 24 | 255 | 1.6 | 4.8 | 0.00 | 0.00 | 0.00 | 84 | 1015.5 |
| 20260901033012 | 24 | 269 | 1.6 | 4.8 | 0.00 | 0.00 | 0.00 | 84 | 1015.4 |
| 20260901032503 | 24 | 256 | 1.6 | 4.8 | 0.00 | 0.00 | 0.00 | 85 | 1015.4 |
| 20260901032009 | 24 | 276 | 0.0 | 4.8 | 0.00 | 0.00 | 0.00 | 86 | 1015.4 |
| 20260901031604 | 24 | 309 | 1.6 | 3.2 | 0.00 | 0.00 | 0.00 | 86 | 1015.4 |
| 20260901031540 | 24 | 276 | 1.6 | 3.2 | 0.00 | 0.00 | 0.00 | 86 | 1015.3 |
| 20260901031008 | 24 | 281 | 0.0 | 3.2 | 0.00 | 0.00 | 0.00 | 87 | 1015.4 |
| 20260901030509 | 23 | 148 | 0.0 | 3.2 | 0.00 | 0.00 | 0.00 | 87 | 1015.4 |
| 20260901030105 | 23 | 0 | 0.0 | 1.6 | 0.00 | 0.00 | 0.00 | 87 | 1015.5 |
| 20260901030024 | 23 | 240 | 0.0 | 1.6 | 0.00 | 0.00 | 0.00 | 87 | 1015.4 |
| 20260901025511 | 23 | 277 | 0.0 | 1.6 | 0.00 | 0.00 | 0.00 | 87 | 1015.3 |
| 20260901025012 | 23 | 273 | 0.0 | 1.6 | 0.00 | 0.00 | 0.00 | 87 | 1015.4 |
| 20260901024608 | 23 | 0 | 0.0 | 1.6 | 0.00 | 0.00 | 0.00 | 88 | 1015.5 |
| 20260901024530 | 23 | 273 | 0.0 | 1.6 | 0.00 | 0.00 | 0.00 | 88 | 1015.4 |
| 20260901024016 | 23 | 274 | 0.0 | 1.6 | 0.00 | 0.00 | 0.00 | 87 | 1015.4 |
| 20260901023521 | 23 | 278 | 0.0 | 0.0 | 0.00 | 0.00 | 0.00 | 87 | 1015.4 |
| 20260901023102 | 23 | 0 | 0.0 | 0.0 | 0.00 | 0.00 | 0.00 | 87 | 1015.5 |
| 20260901023037 | 23 | 279 | 0.0 | 0.0 | 0.00 | 0.00 | 0.00 | 87 | 1015.4 |
| 20260901022503 | 24 | 265 | 0.0 | 0.0 | 0.00 | 0.00 | 0.00 | 87 | 1015.4 |
| 20260901022003 | 24 | 265 | 0.0 | 0.0 | 0.00 | 0.00 | 0.00 | 87 | 1015.3 |
| 20260901021606 | 24 | 0 | 0.0 | 0.0 | 0.00 | 0.00 | 0.00 | 87 | 1015.3 |
| 20260901021512 | 24 | 265 | 0.0 | 0.0 | 0.00 | 0.00 | 0.00 | 87 | 1015.3 |
| 20260901021005 | 24 | 264 | 0.0 | 0.0 | 0.00 | 0.00 | 0.00 | 87 | 1015.3 |
| 20260901020509 | 24 | 264 | 0.0 | 0.0 | 0.00 | 0.00 | 0.00 | 86 | 1015.2 |
| 20260901020057 | 24 | 0 | 0.0 | 0.0 | 0.00 | 0.00 | 0.00 | 86 | 1015.3 |
| 20260901020016 | 24 | 264 | 0.0 | 0.0 | 0.00 | 0.00 | 0.00 | 86 | 1015.3 |
| 20260901015507 | 25 | 264 | 0.0 | 0.0 | 0.00 | 0.00 | 0.00 | 86 | 1015.3 |
| 20260901015016 | 25 | 269 | 0.0 | 0.0 | 0.00 | 0.00 | 0.00 | 86 | 1015.2 |
| 20260901014609 | 25 | 0 | 0.0 | 1.6 | 0.00 | 0.00 | 0.00 | 86 | 1015.2 |
| 20260901014524 | 25 | 269 | 0.0 | 1.6 | 0.00 | 0.00 | 0.00 | 86 | 1015.1 |
| 20260901014015 | 25 | 269 | 0.0 | 1.6 | 0.00 | 0.00 | 0.00 | 86 | 1015.1 |
| 20260901013514 | 25 | 294 | 0.0 | 1.6 | 0.00 | 0.00 | 0.00 | 86 | 1015.0 |
| 20260901013101 | 25 | 0 | 0.0 | 0.0 | 0.00 | 0.00 | 0.00 | 86 | 1015.0 |
| 20260901013031 | 25 | 269 | 0.0 | 0.0 | 0.00 | 0.00 | 0.00 | 86 | 1014.9 |
| 20260901012514 | 25 | 271 | 0.0 | 0.0 | 0.00 | 0.00 | 0.00 | 86 | 1014.8 |
| 20260901012018 | 25 | 271 | 0.0 | 0.0 | 0.00 | 0.00 | 0.00 | 86 | 1014.7 |
| 20260901011558 | 25 | 0 | 0.0 | 0.0 | 0.00 | 0.00 | 0.00 | 86 | 1014.8 |
| 20260901011532 | 25 | 270 | 0.0 | 0.0 | 0.00 | 0.00 | 0.00 | 86 | 1014.5 |
| 20260901011004 | 25 | 270 | 0.0 | 0.0 | 0.00 | 0.00 | 0.00 | 85 | 1014.5 |
| 20260901010503 | 25 | 276 | 0.0 | 0.0 | 0.00 | 0.00 | 0.00 | 85 | 1014.5 |
| 20260901010104 | 25 | 0 | 0.0 | 0.0 | 0.00 | 0.00 | 0.00 | 85 | 1014.7 |
| 20260901010029 | 25 | 275 | 0.0 | 0.0 | 0.00 | 0.00 | 0.00 | 85 | 1014.4 |
| 20260901005505 | 25 | 275 | 0.0 | 0.0 | 0.00 | 0.00 | 0.00 | 84 | 1014.4 |
| 20260901005011 | 26 | 275 | 0.0 | 0.0 | 0.00 | 0.00 | 0.00 | 83 | 1014.3 |
| 20260901004618 | 26 | 0 | 0.0 | 0.0 | 0.00 | 0.00 | 0.00 | 82 | 1014.5 |
| 20260901004524 | 26 | 275 | 0.0 | 0.0 | 0.00 | 0.00 | 0.00 | 81 | 1014.3 |
| 20260901004008 | 26 | 275 | 0.0 | 0.0 | 0.00 | 0.00 | 0.00 | 81 | 1014.3 |
| 20260901003512 | 26 | 275 | 0.0 | 0.0 | 0.00 | 0.00 | 0.00 | 79 | 1014.2 |
| 20260901003107 | 27 | 0 | 0.0 | 0.0 | 0.00 | 0.00 | 0.00 | 79 | 1014.4 |
| 20260901003027 | 27 | 275 | 0.0 | 0.0 | 0.00 | 0.00 | 0.00 | 78 | 1014.2 |
| 20260901002512 | 27 | 275 | 0.0 | 0.0 | 0.00 | 0.00 | 0.00 | 77 | 1014.3 |
| 20260901002017 | 27 | 275 | 0.0 | 0.0 | 0.00 | 0.00 | 0.00 | 76 | 1014.3 |
| 20260901001604 | 27 | 0 | 0.0 | 0.0 | 0.00 | 0.00 | 0.00 | 75 | 1014.3 |
| 20260901001530 | 27 | 275 | 0.0 | 0.0 | 0.00 | 0.00 | 0.00 | 75 | 1014.2 |
| 20260901001015 | 28 | 275 | 0.0 | 0.0 | 0.00 | 0.00 | 0.00 | 74 | 1014.1 |
| 20260901000521 | 28 | 275 | 0.0 | 0.0 | 0.00 | 0.00 | 0.00 | 73 | 1014.0 |
| 20260901000110 | 28 | 0 | 0.0 | 0.0 | 0.00 | 0.00 | 0.00 | 72 | 1014.1 |
| 20260901000033 | 28 | 277 | 0.0 | 0.0 | 0.00 | 0.00 | 0.00 | 72 | 1014.0 |
| 20260831235507 | 29 | 277 | 0.0 | 1.6 | 0.00 | 0.00 | 0.00 | 71 | 1013.8 |
| 20260831235007 | 30 | 278 | 0.0 | 1.6 | 0.00 | 0.00 | 0.00 | 71 | 1014.0 |
| 20260831234608 | 30 | 276 | 1.6 | 4.8 | 0.00 | 0.00 | 0.00 | 70 | 1014.0 |
| 20260831234518 | 30 | 276 | 1.6 | 4.8 | 0.00 | 0.00 | 0.00 | 70 | 1014.0 |
| 20260831234006 | 30 | 286 | 1.6 | 4.8 | 0.00 | 0.00 | 0.00 | 70 | 1013.9 |
| 20260831233508 | 30 | 285 | 1.6 | 3.2 | 0.00 | 0.00 | 0.00 | 69 | 1013.9 |
| 20260831233105 | 30 | 258 | 1.6 | 3.2 | 0.00 | 0.00 | 0.00 | 68 | 1013.9 |
| 20260831233024 | 30 | 281 | 1.6 | 3.2 | 0.00 | 0.00 | 0.00 | 68 | 1013.7 |
| 20260831232510 | 31 | 302 | 1.6 | 3.2 | 0.00 | 0.00 | 0.00 | 68 | 1013.9 |
| 20260831232014 | 31 | 279 | 1.6 | 4.8 | 0.00 | 0.00 | 0.00 | 67 | 1013.8 |
| 20260831231611 | 31 | 224 | 1.6 | 4.8 | 0.00 | 0.00 | 0.00 | 66 | 1013.8 |
| 20260831231536 | 31 | 299 | 1.6 | 4.8 | 0.00 | 0.00 | 0.00 | 66 | 1013.7 |
| 20260831231016 | 31 | 281 | 0.0 | 4.8 | 0.00 | 0.00 | 0.00 | 66 | 1013.6 |
| 20260831230515 | 31 | 295 | 1.6 | 4.8 | 0.00 | 0.00 | 0.00 | 66 | 1013.9 |
| 20260831230110 | 31 | 271 | 1.6 | 4.8 | 0.00 | 0.00 | 0.00 | 65 | 1014.0 |
| 20260831230038 | 31 | 254 | 1.6 | 4.8 | 0.00 | 0.00 | 0.00 | 66 | 1013.8 |
| 20260831225515 | 31 | 283 | 1.6 | 3.2 | 0.00 | 0.00 | 0.00 | 65 | 1013.6 |
| 20260831225018 | 31 | 279 | 1.6 | 4.8 | 0.00 | 0.00 | 0.00 | 65 | 1013.7 |
| 20260831224605 | 31 | 257 | 1.6 | 6.4 | 0.00 | 0.00 | 0.00 | 65 | 1013.9 |
| 20260831224512 | 31 | 233 | 1.6 | 6.4 | 0.00 | 0.00 | 0.00 | 65 | 1013.6 |
| 20260831224005 | 32 | 113 | 1.6 | 8.0 | 0.00 | 0.00 | 0.00 | 65 | 1013.5 |
| 20260831223507 | 32 | 297 | 1.6 | 8.0 | 0.00 | 0.00 | 0.00 | 64 | 1013.5 |
| 20260831223110 | 32 | 285 | 1.6 | 6.4 | 0.00 | 0.00 | 0.00 | 65 | 1013.7 |
| 20260831223020 | 32 | 292 | 1.6 | 6.4 | 0.00 | 0.00 | 0.00 | 64 | 1013.4 |
| 20260831222508 | 32 | 283 | 1.6 | 6.4 | 0.00 | 0.00 | 0.00 | 64 | 1013.4 |
| 20260831222010 | 32 | 250 | 3.2 | 6.4 | 0.00 | 0.00 | 0.00 | 63 | 1013.5 |
| 20260831221610 | 32 | 268 | 3.2 | 9.7 | 0.00 | 0.00 | 0.00 | 63 | 1013.8 |
| 20260831221532 | 32 | 187 | 3.2 | 9.7 | 0.00 | 0.00 | 0.00 | 64 | 1013.5 |
| 20260831221013 | 32 | 239 | 1.6 | 9.7 | 0.00 | 0.00 | 0.00 | 64 | 1013.6 |
| 20260831220514 | 32 | 309 | 1.6 | 6.4 | 0.00 | 0.00 | 0.00 | 63 | 1013.6 |
| 20260831220104 | 32 | 157 | 3.2 | 6.4 | 0.00 | 0.00 | 0.00 | 64 | 1014.0 |
| 20260831220029 | 32 | 131 | 3.2 | 6.4 | 0.00 | 0.00 | 0.00 | 64 | 1013.6 |
| 20260831215520 | 32 | 245 | 3.2 | 8.0 | 0.00 | 0.00 | 0.00 | 63 | 1013.7 |
| 20260831215016 | 32 | 267 | 3.2 | 8.0 | 0.00 | 0.00 | 0.00 | 63 | 1013.7 |
| 20260831214608 | 32 | 221 | 1.6 | 8.0 | 0.00 | 0.00 | 0.00 | 64 | 1014.1 |
| 20260831214536 | 32 | 143 | 1.6 | 8.0 | 0.00 | 0.00 | 0.00 | 64 | 1013.8 |
| 20260831213515 | 32 | 240 | 3.2 | 6.4 | 0.00 | 0.00 | 0.00 | 64 | 1013.8 |
| 20260831213114 | 32 | 176 | 3.2 | 8.0 | 0.00 | 0.00 | 0.00 | 63 | 1014.2 |
| 20260831213016 | 32 | 267 | 3.2 | 6.4 | 0.00 | 0.00 | 0.00 | 64 | 1013.8 |
| 20260831212507 | 32 | 289 | 3.2 | 8.0 | 0.00 | 0.00 | 0.00 | 64 | 1013.8 |
| 20260831212012 | 32 | 345 | 3.2 | 8.0 | 0.00 | 0.00 | 0.00 | 64 | 1013.8 |
| 20260831211606 | 32 | 160 | 1.6 | 6.4 | 0.00 | 0.00 | 0.00 | 64 | 1014.1 |
| 20260831211524 | 32 | 16 | 3.2 | 4.8 | 0.00 | 0.00 | 0.00 | 64 | 1013.8 |
| 20260831211012 | 32 | 109 | 3.2 | 6.4 | 0.00 | 0.00 | 0.00 | 65 | 1013.7 |
| 20260831210511 | 32 | 217 | 3.2 | 8.0 | 0.00 | 0.00 | 0.00 | 65 | 1013.8 |
| 20260831210103 | 32 | 305 | 3.2 | 8.0 | 0.00 | 0.00 | 0.00 | 64 | 1014.1 |
| 20260831210027 | 32 | 153 | 3.2 | 8.0 | 0.00 | 0.00 | 0.00 | 64 | 1013.8 |
| 20260831205512 | 33 | 240 | 3.2 | 8.0 | 0.00 | 0.00 | 0.00 | 65 | 1013.8 |
| 20260831205016 | 33 | 262 | 3.2 | 8.0 | 0.00 | 0.00 | 0.00 | 63 | 1013.9 |
| 20260831204605 | 32 | 212 | 3.2 | 8.0 | 0.00 | 0.00 | 0.00 | 64 | 1014.2 |
| 20260831204532 | 32 | 275 | 3.2 | 8.0 | 0.00 | 0.00 | 0.00 | 64 | 1013.9 |
| 20260831204005 | 32 | 270 | 3.2 | 8.0 | 0.00 | 0.00 | 0.00 | 63 | 1014.0 |
| 20260831203506 | 33 | 245 | 1.6 | 8.0 | 0.00 | 0.00 | 0.00 | 62 | 1014.1 |
| 20260831203107 | 33 | 315 | 3.2 | 9.7 | 0.00 | 0.00 | 0.00 | 61 | 1014.4 |
| 20260831203013 | 33 | 269 | 3.2 | 9.7 | 0.00 | 0.00 | 0.00 | 61 | 1014.2 |
| 20260831202507 | 33 | 189 | 3.2 | 9.7 | 0.00 | 0.00 | 0.00 | 62 | 1014.3 |
| 20260831202007 | 33 | 228 | 3.2 | 11.3 | 0.00 | 0.00 | 0.00 | 63 | 1014.3 |
| 20260831201606 | 33 | 231 | 1.6 | 11.3 | 0.00 | 0.00 | 0.00 | 64 | 1014.7 |
| 20260831201521 | 33 | 174 | 1.6 | 11.3 | 0.00 | 0.00 | 0.00 | 64 | 1014.4 |
| 20260831201014 | 33 | 277 | 1.6 | 8.0 | 0.00 | 0.00 | 0.00 | 63 | 1014.4 |
| 20260831200512 | 33 | 214 | 3.2 | 8.0 | 0.00 | 0.00 | 0.00 | 62 | 1014.4 |
| 20260831200108 | 33 | 355 | 3.2 | 8.0 | 0.00 | 0.00 | 0.00 | 62 | 1014.6 |
| 20260831200023 | 33 | 255 | 3.2 | 8.0 | 0.00 | 0.00 | 0.00 | 64 | 1014.4 |
| 20260831195513 | 33 | 263 | 3.2 | 8.0 | 0.00 | 0.00 | 0.00 | 63 | 1014.5 |
| 20260831195011 | 33 | 338 | 3.2 | 8.0 | 0.00 | 0.00 | 0.00 | 62 | 1014.5 |
| 20260831194640 | 33 | 132 | 1.6 | 9.7 | 0.00 | 0.00 | 0.00 | 65 | 1014.7 |
| 20260831194556 | 32 | 297 | 1.6 | 9.7 | 0.00 | 0.00 | 0.00 | 65 | 1014.5 |
| 20260831194019 | 32 | 261 | 3.2 | 9.7 | 0.00 | 0.00 | 0.00 | 60 | 1014.4 |
| 20260831193515 | 32 | 266 | 3.2 | 6.4 | 0.00 | 0.00 | 0.00 | 62 | 1014.5 |
| 20260831193101 | 32 | 95 | 3.2 | 8.0 | 0.00 | 0.00 | 0.00 | 63 | 1014.8 |
| 20260831193031 | 32 | 274 | 3.2 | 8.0 | 0.00 | 0.00 | 0.00 | 64 | 1014.6 |
| 20260831192504 | 32 | 211 | 3.2 | 8.0 | 0.00 | 0.00 | 0.00 | 62 | 1014.8 |
| 20260831192008 | 32 | 186 | 3.2 | 8.0 | 0.00 | 0.00 | 0.00 | 62 | 1014.8 |
| 20260831191608 | 32 | 147 | 3.2 | 8.0 | 0.00 | 0.00 | 0.00 | 63 | 1015.2 |
| 20260831191519 | 32 | 161 | 3.2 | 8.0 | 0.00 | 0.00 | 0.00 | 64 | 1014.9 |
| 20260831191007 | 32 | 145 | 4.8 | 8.0 | 0.00 | 0.00 | 0.00 | 62 | 1014.9 |
| 20260831190510 | 32 | 275 | 3.2 | 8.0 | 0.00 | 0.00 | 0.00 | 62 | 1015.1 |
| 20260831190122 | 32 | 229 | 3.2 | 11.3 | 0.00 | 0.00 | 0.00 | 62 | 1015.3 |
| 20260831190018 | 32 | 60 | 3.2 | 11.3 | 0.00 | 0.00 | 0.00 | 63 | 1015.1 |
| 20260831185511 | 32 | 335 | 3.2 | 11.3 | 0.00 | 0.00 | 0.00 | 64 | 1015.1 |
| 20260831185013 | 32 | 166 | 3.2 | 8.0 | 0.00 | 0.00 | 0.00 | 65 | 1015.2 |
| 20260831184611 | 32 | 299 | 3.2 | 9.7 | 0.00 | 0.00 | 0.00 | 64 | 1015.4 |
| 20260831184540 | 32 | 299 | 3.2 | 9.7 | 0.00 | 0.00 | 0.00 | 64 | 1015.2 |
| 20260831184013 | 32 | 288 | 3.2 | 11.3 | 0.00 | 0.00 | 0.00 | 63 | 1015.3 |
| 20260831183517 | 32 | 279 | 3.2 | 11.3 | 0.00 | 0.00 | 0.00 | 65 | 1015.3 |
| 20260831183107 | 32 | 250 | 3.2 | 8.0 | 0.00 | 0.00 | 0.00 | 65 | 1015.7 |
| 20260831183028 | 32 | 200 | 3.2 | 8.0 | 0.00 | 0.00 | 0.00 | 67 | 1015.4 |
| 20260831182513 | 32 | 213 | 3.2 | 6.4 | 0.00 | 0.00 | 0.00 | 64 | 1015.5 |
| 20260831182016 | 31 | 345 | 3.2 | 8.0 | 0.00 | 0.00 | 0.00 | 63 | 1015.7 |
| 20260831181606 | 31 | 275 | 3.2 | 9.7 | 0.00 | 0.00 | 0.00 | 67 | 1015.8 |
| 20260831181535 | 31 | 274 | 3.2 | 9.7 | 0.00 | 0.00 | 0.00 | 65 | 1015.8 |
| 20260831181006 | 31 | 226 | 3.2 | 9.7 | 0.00 | 0.00 | 0.00 | 64 | 1015.8 |
| 20260831180507 | 31 | 231 | 3.2 | 8.0 | 0.00 | 0.00 | 0.00 | 66 | 1015.8 |
| 20260831180111 | 31 | 224 | 1.6 | 6.4 | 0.00 | 0.00 | 0.00 | 64 | 1015.8 |
| 20260831180023 | 31 | 191 | 1.6 | 4.8 | 0.00 | 0.00 | 0.00 | 67 | 1015.8 |
| 20260831175507 | 31 | 160 | 3.2 | 6.4 | 0.00 | 0.00 | 0.00 | 65 | 1015.8 |
| 20260831175008 | 31 | 318 | 3.2 | 8.0 | 0.00 | 0.00 | 0.00 | 67 | 1015.8 |
| 20260831174634 | 31 | 115 | 3.2 | 8.0 | 0.00 | 0.00 | 0.00 | 69 | 1015.8 |
| 20260831174520 | 31 | 224 | 3.2 | 8.0 | 0.00 | 0.00 | 0.00 | 67 | 1015.9 |
| 20260831174010 | 31 | 148 | 3.2 | 8.0 | 0.00 | 0.00 | 0.00 | 63 | 1015.9 |
| 20260831173509 | 31 | 247 | 3.2 | 6.4 | 0.00 | 0.00 | 0.00 | 68 | 1015.9 |
| 20260831173105 | 31 | 294 | 3.2 | 6.4 | 0.00 | 0.00 | 0.00 | 67 | 1015.9 |
| 20260831173027 | 31 | 245 | 3.2 | 6.4 | 0.00 | 0.00 | 0.00 | 65 | 1016.0 |
| 20260831172511 | 31 | 295 | 1.6 | 11.3 | 0.00 | 0.00 | 0.00 | 69 | 1016.0 |
| 20260831172017 | 30 | 266 | 1.6 | 11.3 | 0.00 | 0.00 | 0.00 | 68 | 1016.1 |
| 20260831171609 | 30 | 293 | 3.2 | 9.7 | 0.00 | 0.00 | 0.00 | 67 | 1016.2 |
| 20260831171541 | 30 | 274 | 3.2 | 9.7 | 0.00 | 0.00 | 0.00 | 67 | 1016.2 |
| 20260831171014 | 30 | 242 | 3.2 | 9.7 | 0.00 | 0.00 | 0.00 | 66 | 1016.3 |
| 20260831170522 | 30 | 267 | 1.6 | 6.4 | 0.00 | 0.00 | 0.00 | 69 | 1016.3 |
| 20260831170105 | 29 | 290 | 1.6 | 6.4 | 0.00 | 0.00 | 0.00 | 71 | 1016.3 |
| 20260831170100 | 29 | 285 | 3.2 | 6.4 | 0.00 | 0.00 | 0.00 | 71 | 1016.3 |
| 20260831165502 | 29 | 313 | 1.6 | 8.0 | 0.00 | 0.00 | 0.00 | 68 | 1016.4 |
| 20260831165007 | 29 | 260 | 3.2 | 8.0 | 0.00 | 0.00 | 0.00 | 68 | 1016.4 |
| 20260831164626 | 29 | 284 | 3.2 | 8.0 | 0.00 | 0.00 | 0.00 | 68 | 1016.5 |
| 20260831164517 | 29 | 263 | 3.2 | 6.4 | 0.00 | 0.00 | 0.00 | 68 | 1016.4 |
| 20260831164009 | 29 | 238 | 3.2 | 8.0 | 0.00 | 0.00 | 0.00 | 68 | 1016.4 |
| 20260831163509 | 29 | 278 | 4.8 | 8.0 | 0.00 | 0.00 | 0.00 | 67 | 1016.4 |
| 20260831163106 | 29 | 310 | 4.8 | 8.0 | 0.00 | 0.00 | 0.00 | 66 | 1016.4 |
| 20260831163028 | 29 | 241 | 4.8 | 8.0 | 0.00 | 0.00 | 0.00 | 67 | 1016.4 |
| 20260831162513 | 29 | 200 | 3.2 | 8.0 | 0.00 | 0.00 | 0.00 | 68 | 1016.4 |
| 20260831162015 | 29 | 283 | 3.2 | 11.3 | 0.00 | 0.00 | 0.00 | 67 | 1016.4 |
| 20260831161608 | 28 | 288 | 4.8 | 11.3 | 0.00 | 0.00 | 0.00 | 67 | 1016.4 |
| 20260831161531 | 28 | 238 | 4.8 | 11.3 | 0.00 | 0.00 | 0.00 | 67 | 1016.4 |
| 20260831161014 | 28 | 231 | 4.8 | 8.0 | 0.00 | 0.00 | 0.00 | 67 | 1016.3 |
| 20260831160515 | 28 | 290 | 3.2 | 9.7 | 0.00 | 0.00 | 0.00 | 69 | 1016.3 |
| 20260831160105 | 28 | 256 | 3.2 | 9.7 | 0.00 | 0.00 | 0.00 | 69 | 1016.3 |
| 20260831160034 | 28 | 296 | 1.6 | 9.7 | 0.00 | 0.00 | 0.00 | 71 | 1016.4 |
| 20260831155518 | 28 | 302 | 3.2 | 8.0 | 0.00 | 0.00 | 0.00 | 71 | 1016.4 |
| 20260831155018 | 27 | 310 | 4.8 | 6.4 | 0.00 | 0.00 | 0.00 | 69 | 1016.4 |
| 20260831154634 | 27 | 296 | 3.2 | 9.7 | 0.00 | 0.00 | 0.00 | 71 | 1016.4 |
| 20260831154537 | 27 | 229 | 3.2 | 9.7 | 0.00 | 0.00 | 0.00 | 69 | 1016.4 |
| 20260831154008 | 27 | 314 | 4.8 | 9.7 | 0.00 | 0.00 | 0.00 | 69 | 1016.4 |
| 20260831153509 | 27 | 274 | 3.2 | 9.7 | 0.00 | 0.00 | 0.00 | 72 | 1016.4 |
| 20260831153120 | 27 | 278 | 3.2 | 8.0 | 0.00 | 0.00 | 0.00 | 74 | 1016.2 |
| 20260831153018 | 26 | 262 | 3.2 | 8.0 | 0.00 | 0.00 | 0.00 | 74 | 1016.4 |
| 20260831152510 | 26 | 278 | 3.2 | 8.0 | 0.00 | 0.00 | 0.00 | 71 | 1016.4 |
| 20260831152011 | 26 | 323 | 1.6 | 8.0 | 0.00 | 0.00 | 0.00 | 72 | 1016.4 |
| 20260831151613 | 26 | 291 | 3.2 | 8.0 | 0.00 | 0.00 | 0.00 | 71 | 1016.3 |
| 20260831151528 | 26 | 296 | 3.2 | 8.0 | 0.00 | 0.00 | 0.00 | 71 | 1016.3 |
| 20260831151013 | 26 | 307 | 3.2 | 8.0 | 0.00 | 0.00 | 0.00 | 72 | 1016.3 |
| 20260831150512 | 26 | 307 | 3.2 | 9.7 | 0.00 | 0.00 | 0.00 | 73 | 1016.3 |
| 20260831150109 | 26 | 288 | 3.2 | 9.7 | 0.00 | 0.00 | 0.00 | 72 | 1016.2 |
| 20260831150032 | 26 | 297 | 3.2 | 9.7 | 0.00 | 0.00 | 0.00 | 72 | 1016.3 |
| 20260831145514 | 26 | 271 | 4.8 | 9.7 | 0.00 | 0.00 | 0.00 | 73 | 1016.2 |
| 20260831145015 | 26 | 295 | 3.2 | 6.4 | 0.00 | 0.00 | 0.00 | 73 | 1016.2 |
| 20260831144607 | 26 | 285 | 3.2 | 6.4 | 0.00 | 0.00 | 0.00 | 73 | 1016.2 |
| 20260831144535 | 26 | 285 | 3.2 | 6.4 | 0.00 | 0.00 | 0.00 | 72 | 1016.2 |
| 20260831144015 | 26 | 292 | 3.2 | 8.0 | 0.00 | 0.00 | 0.00 | 71 | 1016.2 |
| 20260831143517 | 26 | 296 | 3.2 | 8.0 | 0.00 | 0.00 | 0.00 | 72 | 1016.3 |
| 20260831143107 | 26 | 255 | 4.8 | 14.5 | 0.00 | 0.00 | 0.00 | 70 | 1016.2 |
| 20260831143016 | 26 | 316 | 4.8 | 14.5 | 0.00 | 0.00 | 0.00 | 72 | 1016.2 |
| 20260831142509 | 26 | 278 | 4.8 | 14.5 | 0.00 | 0.00 | 0.00 | 73 | 1016.0 |
| 20260831142012 | 25 | 255 | 4.8 | 9.7 | 0.00 | 0.00 | 0.00 | 73 | 1016.1 |
| 20260831141605 | 25 | 282 | 3.2 | 8.0 | 0.00 | 0.00 | 0.00 | 74 | 1016.1 |
| 20260831141524 | 25 | 331 | 3.2 | 8.0 | 0.00 | 0.00 | 0.00 | 74 | 1016.1 |
| 20260831141012 | 25 | 293 | 4.8 | 8.0 | 0.00 | 0.00 | 0.00 | 75 | 1016.1 |
| 20260831140513 | 25 | 276 | 4.8 | 8.0 | 0.00 | 0.00 | 0.00 | 75 | 1016.2 |
| 20260831140101 | 25 | 292 | 3.2 | 8.0 | 0.00 | 0.00 | 0.00 | 76 | 1016.2 |
| 20260831140032 | 25 | 292 | 3.2 | 8.0 | 0.00 | 0.00 | 0.00 | 76 | 1016.1 |
| 20260831135515 | 24 | 153 | 3.2 | 6.4 | 0.00 | 0.00 | 0.00 | 77 | 1016.1 |
| 20260831135014 | 23 | 281 | 3.2 | 8.0 | 0.00 | 0.00 | 0.00 | 77 | 1016.1 |
| 20260831134614 | 23 | 245 | 3.2 | 8.0 | 0.00 | 0.18 | 0.00 | 76 | 1016.1 |
| 20260831134531 | 23 | 259 | 3.2 | 8.0 | 0.00 | 0.03 | 0.00 | 76 | 1016.0 |
| 20260831134015 | 23 | 304 | 4.8 | 9.7 | 0.00 | 0.05 | 0.00 | 76 | 1016.2 |
| 20260831133518 | 23 | 271 | 1.6 | 9.7 | 0.00 | 0.15 | 0.00 | 77 | 1015.9 |
| 20260831133109 | 23 | 259 | 3.2 | 8.0 | 0.00 | 0.18 | 0.00 | 77 | 1016.0 |
| 20260831133036 | 23 | 282 | 3.2 | 8.0 | 0.00 | 0.18 | 0.00 | 76 | 1016.0 |
| 20260831132516 | 23 | 284 | 3.2 | 8.0 | 0.00 | 0.18 | 0.00 | 77 | 1016.0 |
| 20260831132020 | 23 | 113 | 1.6 | 6.4 | 0.00 | 0.18 | 0.00 | 78 | 1016.0 |
| 20260831131601 | 23 | 264 | 3.2 | 9.7 | 0.00 | 0.18 | 0.00 | 78 | 1016.2 |
| 20260831131517 | 23 | 288 | 3.2 | 9.7 | 0.00 | 0.18 | 0.00 | 78 | 1016.0 |
| 20260831131014 | 22 | 288 | 3.2 | 9.7 | 0.00 | 0.18 | 0.00 | 79 | 1016.1 |
| 20260831130510 | 22 | 247 | 3.2 | 6.4 | 0.00 | 0.18 | 0.00 | 80 | 1016.0 |
| 20260831130104 | 22 | 307 | 1.6 | 4.8 | 0.00 | 0.18 | 0.00 | 81 | 1016.1 |
| 20260831130024 | 22 | 261 | 1.6 | 4.8 | 0.00 | 0.18 | 0.00 | 81 | 1015.9 |
| 20260831125513 | 21 | 165 | 1.6 | 4.8 | 0.00 | 0.18 | 0.00 | 82 | 1015.9 |
| 20260831125017 | 21 | 217 | 1.6 | 6.4 | 0.00 | 0.18 | 0.00 | 83 | 1015.9 |
| 20260831124606 | 21 | 328 | 1.6 | 6.4 | 0.00 | 0.18 | 0.00 | 83 | 1016.0 |
| 20260831124532 | 21 | 232 | 1.6 | 6.4 | 0.00 | 0.18 | 0.00 | 83 | 1016.0 |
| 20260831124020 | 21 | 258 | 1.6 | 6.4 | 0.00 | 0.18 | 0.00 | 82 | 1015.9 |
| 20260831123514 | 21 | 293 | 1.6 | 4.8 | 0.00 | 0.18 | 0.00 | 82 | 1015.9 |
| 20260831123106 | 21 | 295 | 1.6 | 4.8 | 0.00 | 0.18 | 0.00 | 82 | 1015.9 |
| 20260831123030 | 21 | 234 | 1.6 | 4.8 | 0.00 | 0.18 | 0.00 | 83 | 1015.8 |
| 20260831122518 | 21 | 235 | 1.6 | 4.8 | 0.00 | 0.18 | 0.00 | 83 | 1015.8 |
| 20260831122019 | 21 | 237 | 1.6 | 4.8 | 0.00 | 0.18 | 0.00 | 84 | 1015.8 |
| 20260831121626 | 21 | 287 | 1.6 | 4.8 | 0.00 | 0.18 | 0.00 | 84 | 1015.8 |
| 20260831121532 | 21 | 300 | 1.6 | 4.8 | 0.00 | 0.18 | 0.00 | 84 | 1015.7 |
| 20260831121016 | 21 | 287 | 1.6 | 4.8 | 0.00 | 0.18 | 0.00 | 84 | 1015.6 |
| 20260831120519 | 21 | 341 | 1.6 | 6.4 | 0.00 | 0.18 | 0.00 | 84 | 1015.6 |
| 20260831120115 | 20 | 257 | 1.6 | 6.4 | 0.00 | 0.18 | 0.00 | 84 | 1015.6 |
| 20260831120031 | 20 | 303 | 1.6 | 6.4 | 0.00 | 0.18 | 0.00 | 84 | 1015.6 |
| 20260831115509 | 20 | 286 | 1.6 | 6.4 | 0.00 | 0.18 | 0.00 | 84 | 1015.5 |
| 20260831115011 | 20 | 306 | 1.6 | 4.8 | 0.00 | 0.18 | 0.00 | 84 | 1015.5 |
| 20260831114624 | 20 | 290 | 1.6 | 6.4 | 0.00 | 0.18 | 0.00 | 83 | 1015.5 |
| 20260831114531 | 20 | 292 | 1.6 | 6.4 | 0.00 | 0.18 | 0.00 | 83 | 1015.4 |
| 20260831114003 | 21 | 287 | 1.6 | 6.4 | 0.00 | 0.18 | 0.00 | 83 | 1015.3 |
| 20260831113504 | 21 | 274 | 3.2 | 4.8 | 0.00 | 0.18 | 0.00 | 83 | 1015.3 |
| 20260831113125 | 21 | 270 | 1.6 | 6.4 | 0.00 | 0.18 | 0.00 | 83 | 1015.4 |
| 20260831113007 | 21 | 276 | 1.6 | 6.4 | 0.00 | 0.18 | 0.00 | 83 | 1015.3 |
| 20260831112506 | 21 | 285 | 1.6 | 8.0 | 0.00 | 0.18 | 0.00 | 83 | 1015.3 |
| 20260831112003 | 21 | 277 | 3.2 | 8.0 | 0.00 | 0.18 | 0.00 | 83 | 1015.3 |
| 20260831111604 | 21 | 279 | 3.2 | 6.4 | 0.00 | 0.18 | 0.00 | 83 | 1015.4 |
| 20260831111523 | 21 | 319 | 3.2 | 6.4 | 0.00 | 0.18 | 0.00 | 83 | 1015.3 |
| 20260831111010 | 21 | 221 | 1.6 | 6.4 | 0.00 | 0.18 | 0.00 | 83 | 1015.3 |
| 20260831110508 | 20 | 288 | 3.2 | 6.4 | 0.00 | 0.18 | 0.00 | 83 | 1015.2 |
| 20260831110106 | 20 | 290 | 1.6 | 4.8 | 0.00 | 0.18 | 0.00 | 83 | 1015.3 |
| 20260831110018 | 20 | 297 | 1.6 | 4.8 | 0.00 | 0.18 | 0.00 | 83 | 1015.3 |
| 20260831105507 | 20 | 217 | 1.6 | 6.4 | 0.00 | 0.18 | 0.00 | 84 | 1015.3 |
| 20260831105011 | 20 | 257 | 3.2 | 6.4 | 0.00 | 0.18 | 0.00 | 83 | 1015.3 |
| 20260831104615 | 20 | 285 | 3.2 | 6.4 | 0.00 | 0.18 | 0.00 | 83 | 1015.4 |
| 20260831104533 | 20 | 273 | 3.2 | 6.4 | 0.00 | 0.18 | 0.00 | 83 | 1015.3 |
| 20260831104010 | 21 | 278 | 1.6 | 6.4 | 0.00 | 0.18 | 0.00 | 83 | 1015.3 |
| 20260831103514 | 21 | 286 | 1.6 | 6.4 | 0.00 | 0.18 | 0.00 | 83 | 1015.3 |
| 20260831103111 | 21 | 317 | 3.2 | 6.4 | 0.00 | 0.18 | 0.00 | 83 | 1015.3 |
| 20260831103004 | 21 | 250 | 3.2 | 6.4 | 0.00 | 0.18 | 0.00 | 82 | 1015.3 |
| 20260831102504 | 21 | 248 | 1.6 | 6.4 | 0.00 | 0.18 | 0.00 | 82 | 1015.3 |
| 20260831102004 | 21 | 281 | 1.6 | 4.8 | 0.00 | 0.18 | 0.00 | 82 | 1015.3 |
| 20260831101605 | 21 | 271 | 1.6 | 6.4 | 0.00 | 0.18 | 0.00 | 82 | 1015.3 |
| 20260831101511 | 21 | 283 | 1.6 | 6.4 | 0.00 | 0.18 | 0.00 | 82 | 1015.2 |
| 20260831101005 | 21 | 286 | 3.2 | 6.4 | 0.00 | 0.18 | 0.00 | 82 | 1015.1 |
| 20260831100504 | 21 | 268 | 3.2 | 6.4 | 0.00 | 0.18 | 0.00 | 82 | 1015.0 |
| 20260831100104 | 21 | 245 | 1.6 | 6.4 | 0.00 | 0.18 | 0.00 | 82 | 1015.1 |
| 20260831100019 | 21 | 278 | 1.6 | 6.4 | 0.00 | 0.18 | 0.00 | 82 | 1015.1 |
| 20260831095507 | 21 | 282 | 1.6 | 4.8 | 0.00 | 0.18 | 0.00 | 82 | 1015.0 |
| 20260831095010 | 21 | 268 | 1.6 | 4.8 | 0.00 | 0.18 | 0.00 | 82 | 1015.0 |
| 20260831094609 | 21 | 48 | 1.6 | 4.8 | 0.00 | 0.18 | 0.00 | 82 | 1015.1 |
| 20260831094530 | 21 | 285 | 1.6 | 4.8 | 0.00 | 0.18 | 0.00 | 82 | 1015.1 |
| 20260831094012 | 21 | 290 | 1.6 | 4.8 | 0.00 | 0.18 | 0.00 | 82 | 1015.1 |
| 20260831093511 | 21 | 242 | 1.6 | 4.8 | 0.00 | 0.18 | 0.00 | 82 | 1015.1 |
| 20260831093155 | 21 | 288 | 1.6 | 6.4 | 0.00 | 0.18 | 0.00 | 82 | 1015.1 |
| 20260831093026 | 21 | 307 | 1.6 | 6.4 | 0.00 | 0.18 | 0.00 | 82 | 1015.1 |
| 20260831092514 | 21 | 261 | 1.6 | 6.4 | 0.00 | 0.18 | 0.00 | 82 | 1015.2 |
| 20260831092014 | 21 | 274 | 3.2 | 4.8 | 0.00 | 0.18 | 0.00 | 82 | 1015.2 |
| 20260831091606 | 21 | 293 | 1.6 | 4.8 | 0.00 | 0.18 | 0.00 | 82 | 1015.2 |
| 20260831091508 | 21 | 281 | 1.6 | 4.8 | 0.00 | 0.18 | 0.00 | 82 | 1015.2 |
| 20260831091003 | 21 | 282 | 1.6 | 4.8 | 0.00 | 0.18 | 0.00 | 81 | 1015.3 |
| 20260831090506 | 21 | 313 | 1.6 | 4.8 | 0.00 | 0.18 | 0.00 | 81 | 1015.2 |
| 20260831090107 | 21 | 46 | 1.6 | 4.8 | 0.00 | 0.18 | 0.00 | 81 | 1015.3 |
| 20260831090014 | 21 | 259 | 1.6 | 4.8 | 0.00 | 0.18 | 0.00 | 81 | 1015.2 |
| 20260831085504 | 21 | 264 | 1.6 | 4.8 | 0.00 | 0.18 | 0.00 | 81 | 1015.2 |
| 20260831085008 | 21 | 288 | 1.6 | 4.8 | 0.00 | 0.18 | 0.00 | 82 | 1015.2 |
| 20260831084653 | 21 | 232 | 1.6 | 4.8 | 0.00 | 0.18 | 0.00 | 82 | 1015.3 |
| 20260831084518 | 21 | 288 | 1.6 | 4.8 | 0.00 | 0.18 | 0.00 | 82 | 1015.2 |
| 20260831084007 | 21 | 205 | 1.6 | 4.8 | 0.00 | 0.18 | 0.00 | 82 | 1015.2 |
| 20260831083511 | 21 | 238 | 1.6 | 4.8 | 0.00 | 0.18 | 0.00 | 82 | 1015.1 |
| 20260831083110 | 21 | 214 | 1.6 | 3.2 | 0.00 | 0.18 | 0.00 | 81 | 1015.1 |
| 20260831083027 | 21 | 249 | 1.6 | 3.2 | 0.00 | 0.18 | 0.00 | 81 | 1015.1 |
| 20260831082510 | 21 | 314 | 0.0 | 3.2 | 0.00 | 0.18 | 0.00 | 81 | 1015.0 |
| 20260831082016 | 21 | 224 | 1.6 | 4.8 | 0.00 | 0.18 | 0.00 | 81 | 1015.1 |
| 20260831081605 | 21 | 116 | 0.0 | 4.8 | 0.00 | 0.18 | 0.00 | 80 | 1015.1 |
| 20260831081530 | 21 | 250 | 0.0 | 4.8 | 0.00 | 0.18 | 0.00 | 80 | 1015.0 |